STARLINK-1665, 46356

Orbit data source: Space-Track

STARLINK-1665, 46356 is a payload satellite owned by SpaceX/Seattle (US) in LEO that was launched on Thu, 03 Sep 2020 UTC via an FALCON 9 launch vehicle from the Air Force Eastern Test Range (AFETR). Payload-class satellites include a variety of spacecraft equipped with specific instruments for various scientific and technological missions. These include communications satellites like Starlink; space stations such as the ISS; scientific satellites like the Hubble; Earth observation satellites from companies like Planet Labs, Umbra, and HawkEye 360; GPS; miniature CubeSats for education and research; and military/defense satellites.

Loading next visibility...
Identifier
46356, 2020-062AH
Orbit
LEO
Country
Flag of USUS
Related business
Manufacturer
SpaceX/Seattle
Mission
Partially operational Commercial Communications
Bus & Motor
STARLINK, Unknown motor
Mass
260 kg wet, ~248 kg dry
Launch date (UTC)
2020-09-03 (6 years ago)
Launch vehicle
FALCON 9
Launch site
Air Force Eastern Test Range (AFETR)
Object type
Payload
Rocket body
Debris
Shape & HBR
Box + 1 Pan, 10.1 m
Radar Cross Section
13.562 m², Large (>1 m²)

Expand to show TLE details & history
Last TLE update: 6 hours ago

TLE from 6 hours ago
0 STARLINK-1665
1 46356U 20062AH  26127.00002315  .00062478  00000-0  36511-3 0  9999
2 46356  53.0388  48.3265 0008284 117.1139 235.5554 15.77757377  5893
Epoch: 2026-05-07T00:00Z
TLE epoch observation values (Epoch: 2026-05-07T00:00:02.000Z)
Latitude
-6.03198°
Longitude
178.93075°
Altitude
341.83 km
Speed
7.703 km/s
True Right ascension
02h 55m 09s
True Declination
-5° 59' 38"
Sunlit
Object was in daylight at epoch
Visualization orbit readout
Latitude
Unknown
Longitude
Unknown
Altitude
Unknown
Speed
Unknown
Apparent Right ascension
Unknown
Apparent Declination
Unknown
Sunlit
N/A
Visualization observer readout
Local Sidereal Time
13:38:32
Azimuth
Unknown
Elevation
Unknown
Doppler factor
Unknown
Orbital elements
Apogee altitude
342.641 km
Perigee altitude
331.515 km
Semi-major axis
6,715.215 km
Eccentricity
0.00083
Inclination
53.0388°
RAAN
48.3265°
Arg. of periapsis
117.1139°
True anomaly
235.47716°
Mean anomaly
235.5554°
Eccentric anomaly
235.51628°
Mean motion
3.94415 °/min
Orbital period
91.27 mins
BSTAR
0.00036511
Loading maneuver chart data...
Computing Atmospheric mass density...

Documentation

Showing up to 5 results
|